Location: Kaarina
(60.4167°N, 22.4167°E)
Time: 07:43:39
(UTC+03:00)

Sich 1 Rocket - Pass Details

Date: 24 August 2019
Orbit: 617 x 652 km, 82.5° (Epoch: 14 October)

Event Time Altitude Azimuth Distance (km) Brightness Sun altitude
Exits shadow 23:36:08 - 210° (SSW) 2,450 6.3 -14.9°
Reaches altitude 10° 23:37:12 10° 212° (SSW) 2,029 5.9 -15.0°
Maximum altitude 23:41:37 54° 290° (WNW) 779 4.3 -15.3°
Drops below altitude 10° 23:46:01 10° 9° (N) 2,021 7.0 -15.5°
Sets 23:48:18 0° 14° (NNE) 2,928 7.8 -15.6°
